Wind_Speed
33 32 33 35 34 33 32 31 30 28 26 22 19 17 16 15 15 14 13 12 11 11 10 10 11 11 11 12 12 12 13 14 16 17 18 19 19 20 19 19 19 17 16 15
34 34 34 34 34 34 34 33 32 30 28 24 22 21 19 18 17 17 15 14 13 12 12 12 12 13 14 13 14 14 15 16 17 18 19 19 19 20 20 19 19 18 16 16
35 35 35 36 35 35 34 33 33 31 28 26 24 22 21 20 19 18 16 15 14 13 13 13 13 14 15 16 16 16 16 18 19 19 20 20 20 20 20 20 19 19 18 18
35 35 37 36 35 35 35 34 33 32 30 28 26 24 23 21 20 19 17 17 16 16 15 15 15 15 16 17 17 18 18 19 20 20 20 21 21 21 21 21 21 20 20 20
37 37 38 37 36 35 35 35 34 33 31 29 27 26 24 22 21 19 19 19 18 18 17 18 18 17 17 18 19 19 20 20 21 21 21 21 22 22 23 23 23 22 22 22
39 39 40 37 35 35 35 35 33 33 32 30 29 28 25 24 23 22 21 22 21 20 20 20 21 20 20 20 20 21 21 22 22 22 22 23 23 23 24 24 24 24 24 24
40 40 40 37 36 34 35 35 33 33 32 32 30 29 27 27 25 25 24 23 23 23 23 23 23 23 22 22 22 22 22 24 23 23 23 24 24 24 25 25 25 25 25 25
40 41 39 37 36 35 34 33 33 32 32 32 31 30 29 28 27 27 26 25 24 24 24 24 25 25 25 25 24 23 24 25 25 25 25 25 25 25 26 26 27 27 27 26
40 40 38 37 37 36 35 35 34 33 32 33 33 32 32 31 30 29 28 27 26 26 26 27 27 26 26 26 26 26 26 27 27 27 27 27 27 27 27 28 29 29 29 28
40 40 39 38 37 36 36 36 36 35 34 33 34 33 33 32 32 31 30 29 29 28 28 29 28 27 27 28 28 28 28 28 28 28 28 29 29 29 30 30 30 30 29 28
39 39 39 39 38 38 37 36 36 36 35 34 34 34 34 33 33 33 32 31 31 31 30 29 29 29 30 29 29 29 29 29 29 29 29 29 30 31 31 31 31 31 30 30
37 38 38 38 38 39 39 38 37 36 35 34 34 34 34 34 35 34 34 33 33 33 32 32 32 32 31 30 30 30 31 31 31 31 31 31 31 32 32 32 33 32 32 31
37 37 38 38 38 37 37 37 37 37 35 34 35 34 34 34 34 35 35 35 34 33 33 32 33 33 32 31 31 31 32 33 33 32 32 33 32 32 32 32 33 33 33 32
38 39 38 38 38 37 36 36 36 37 36 36 35 34 33 33 34 34 34 34 34 34 34 33 33 34 34 33 32 32 32 33 33 33 33 34 34 34 33 33 33 33 33 33
37 38 38 38 38 37 37 36 36 36 37 36 35 35 34 34 34 34 34 34 33 34 34 34 34 34 35 35 34 33 33 33 34 34 34 35 35 35 35 34 34 33 33 34
36 36 35 36 37 36 36 37 37 36 37 37 37 37 36 35 34 34 33 33 33 34 35 35 36 36 35 35 33 33 33 34 34 35 35 36 35 35 35 35 35 35 34 35
35 37 37 37 36 36 37 37 36 37 37 36 36 36 35 34 34 34 35 34 34 35 35 36 36 36 36 34 33 33 33 34 35 35 35 35 34 34 35 36 36 35 35 35
33 34 35 36 36 36 36 36 36 35 36 36 35 35 34 34 34 34 34 34 34 35 35 34 33 34 34 34 33 33 34 34 34 34 34 35 35 35 36 36 36 36 36 36
33 32 33 34 34 33 34 34 35 35 35 34 34 33 32 32 32 33 34 35 35 35 35 34 34 34 34 34 34 34 34 34 34 35 35 35 36 36 36 37 37 37 37 36
31 31 31 32 32 32 32 32 32 33 33 32 31 30 29 30 31 33 34 34 35 35 34 34 34 34 34 34 34 34 34 35 35 35 35 35 35 36 36 36 37 37 37 36
29 30 30 31 32 32 31 31 31 33 33 33 32 31 31 31 32 33 33 34 35 35 34 34 34 34 35 35 35 35 34 34 35 35 35 35 35 35 35 35 35 36 35 35
26 28 29 29 31 31 30 29 29 30 31 30 30 31 31 31 32 33 33 34 33 33 33 33 33 34 34 34 34 34 34 34 34 34 34 34 34 34 34 33 33 33 33 33
23 24 26 27 28 29 29 29 28 28 28 30 30 30 31 31 31 30 30 31 31 31 31 31 32 31 31 32 32 32 32 32 32 33 33 33 33 33 33 32 32 32 31 31
22 23 25 26 27 28 29 29 29 29 30 31 31 30 30 30 29 28 28 28 28 29 29 29 30 30 30 30 30 31 31 31 31 31 32 32 32 32 31 31 30 31 30 29
20 22 24 26 27 28 28 28 28 29 30 30 30 29 28 27 27 27 27 28 28 28 29 29 29 30 30 29 30 30 30 31 31 31 31 31 31 30 30 29 29 29 28 28
18 20 21 22 23 24 25 26 26 28 28 29 28 27 27 26 26 26 26 27 27 28 28 28 29 29 29 29 29 30 30 30 30 31 31 30 30 30 29 28 27 27 28 28
17 17 18 19 19 20 21 22 23 23 23 23 23 24 24 24 24 25 25 25 25 26 26 26 27 27 27 28 29 28 28 28 29 29 29 29 29 28 28 27 27 27 26 26
Wind_Direction
229 229 230 234 236 239 243 246 249 252 255 255 256 259 264 271 274 280 286 292 300 303 310 316 322 326 328 334 332 331 331 332 334 334 334 336 338 340 338 337 337 334 331 326
231 230 231 233 235 238 242 246 249 252 253 253 254 256 259 264 269 274 278 285 291 293 297 304 312 316 317 321 323 323 321 322 325 325 326 328 332 334 336 336 335 332 330 329
235 234 233 235 235 238 240 243 247 250 252 251 253 256 258 262 265 269 273 276 283 286 290 295 302 309 313 314 316 315 314 313 316 318 324 322 324 327 329 331 330 329 326 324
239 237 237 238 238 239 241 243 247 250 251 251 254 256 257 259 260 265 269 273 278 280 284 288 292 299 306 308 309 309 309 309 313 317 320 322 322 323 326 325 325 325 324 321
239 240 241 240 241 242 243 244 246 249 251 250 252 254 256 256 259 263 267 270 273 275 278 284 289 294 299 302 304 306 306 307 309 312 314 316 318 319 321 323 322 322 321 320
240 242 242 242 244 246 246 246 245 246 249 249 250 253 254 256 258 259 262 266 269 274 279 284 287 290 295 298 300 302 304 307 307 310 311 312 313 313 315 317 319 319 319 318
240 243 245 245 246 245 245 246 245 245 247 249 250 254 255 254 256 257 260 263 266 271 276 281 285 288 290 294 294 297 301 306 306 309 311 312 312 310 311 313 315 316 316 315
240 242 245 245 246 245 245 244 244 244 245 247 249 252 253 253 254 256 258 260 264 268 274 278 282 285 286 289 289 293 297 300 303 306 308 310 312 311 309 310 311 312 314 313
242 243 244 243 244 245 245 244 244 243 244 246 248 250 250 251 254 255 257 259 263 267 271 276 279 282 284 285 288 292 295 297 300 302 303 306 308 309 309 308 310 312 311 310
244 243 243 243 243 244 245 246 246 246 246 247 248 248 248 250 253 255 257 259 263 267 272 274 276 277 280 282 285 289 292 295 296 297 298 301 303 305 306 308 308 308 309 308
244 243 242 242 243 244 246 248 248 249 248 247 248 247 247 249 253 256 258 261 264 268 273 274 274 277 279 281 284 288 290 292 294 296 298 299 301 302 303 304 304 305 305 305
242 241 241 240 243 245 247 248 249 249 250 251 251 250 248 249 252 255 258 261 264 267 270 274 277 279 280 281 284 286 288 290 292 293 295 297 299 300 301 301 301 302 302 303
241 240 238 239 241 243 245 246 248 248 249 250 251 250 251 251 252 254 257 260 263 266 270 272 276 279 280 282 283 284 286 288 289 291 293 294 296 298 299 299 299 298 298 299
242 240 239 240 242 242 243 245 247 247 248 248 248 248 249 251 253 255 257 261 264 267 270 272 275 278 279 280 281 283 285 286 287 289 290 292 294 296 297 298 297 297 297 297
241 242 241 240 242 243 243 244 245 245 246 247 247 249 249 250 251 255 258 262 264 267 270 272 274 276 276 278 279 282 284 284 286 288 289 290 293 295 296 296 297 297 297 297
241 241 241 240 241 241 242 242 243 245 247 248 248 250 252 253 254 256 259 262 265 268 271 272 275 275 276 277 280 282 284 285 285 287 288 288 290 293 294 295 297 298 298 298
240 240 240 240 240 240 242 243 243 244 247 248 249 251 252 254 256 258 261 264 267 269 270 272 273 274 275 277 280 284 285 285 284 286 287 288 290 291 293 294 295 296 297 298
240 240 238 239 240 241 242 244 244 244 246 248 250 251 252 254 256 259 261 264 267 269 272 275 275 275 275 278 280 282 284 286 286 285 286 288 290 291 292 293 294 295 296 297
241 241 240 239 239 240 242 245 245 245 246 246 247 249 250 253 256 259 262 265 269 272 272 275 278 277 277 279 281 283 284 285 285 285 287 288 289 290 291 292 293 294 295 296
237 237 239 240 241 242 243 244 244 245 247 247 249 251 253 257 260 263 266 267 269 272 274 276 278 277 278 280 281 283 285 285 285 286 287 289 290 291 291 292 292 292 293 294
233 235 239 241 243 244 244 243 244 247 248 250 252 254 257 261 265 268 269 269 271 272 274 275 275 276 278 280 282 284 285 284 285 286 287 288 290 291 292 292 292 293 293 293
234 236 237 240 242 242 244 245 247 249 251 253 255 256 259 263 266 268 269 271 271 272 272 273 275 276 278 280 281 282 284 284 285 286 287 288 290 291 292 293 294 294 294 294
236 238 237 238 240 242 244 244 247 250 253 255 257 260 262 265 267 270 270 270 270 271 272 274 276 276 276 277 280 282 284 285 285 286 287 289 290 292 292 293 294 295 295 295
240 240 239 240 244 245 246 248 251 254 256 257 259 261 263 264 265 267 268 269 270 271 272 274 275 276 277 279 279 281 283 285 286 288 289 290 291 292 293 293 294 295 295 295
244 244 245 246 246 247 249 251 254 256 257 258 258 260 261 264 266 267 269 270 271 273 273 274 275 278 279 280 281 282 283 285 287 288 289 289 290 291 292 293 293 294 294 296
248 247 247 249 250 252 252 253 255 255 256 258 258 260 262 264 266 269 270 271 273 274 275 275 277 278 279 279 281 281 283 286 287 287 287 287 288 290 292 294 294 293 294 296
251 252 251 250 250 252 254 254 254 252 253 255 258 260 262 264 266 269 271 273 274 276 276 276 277 278 278 279 281 281 282 284 286 287 288 288 289 290 293 293 293 294 295 297
Height
5882 5887 5890 5893 5896 5899 5901 5904 5906 5909 5911 5914 5916 5917 5918 5919 5919 5918 5918 5917 5917 5916 5915 5914 5913 5911 5910 5909 5907 5905 5904 5902 5900 5898 5896 5893 5890 5887 5883 5880 5876 5874 5872 5869
5876 5880 5883 5886 5890 5893 5896 5898 5900 5903 5906 5909 5911 5912 5914 5915 5915 5915 5915 5915 5914 5913 5912 5911 5910 5909 5908 5907 5905 5903 5902 5900 5898 5896 5893 5890 5887 5884 5881 5878 5875 5872 5869 5867
5869 5873 5876 5879 5883 5886 5889 5892 5895 5897 5901 5904 5906 5907 5909 5910 5911 5911 5911 5911 5911 5910 5909 5908 5907 5907 5905 5904 5902 5901 5899 5897 5895 5892 5889 5886 5884 5881 5878 5875 5872 5870 5867 5864
5862 5866 5868 5875 5877 5880 5883 5886 5889 5892 5895 5898 5900 5902 5904 5905 5906 5906 5907 5907 5906 5906 5905 5905 5904 5903 5902 5900 5899 5897 5895 5893 5891 5888 5886 5883 5881 5878 5875 5872 5869 5866 5863 5861
5854 5857 5861 5866 5870 5873 5876 5879 5883 5885 5889 5891 5893 5895 5897 5899 5900 5901 5902 5902 5902 5901 5901 5901 5900 5899 5898 5897 5895 5893 5891 5889 5887 5885 5882 5880 5877 5875 5872 5869 5866 5863 5860 5857
5845 5848 5852 5860 5863 5866 5870 5872 5876 5878 5882 5884 5887 5889 5892 5894 5895 5895 5896 5897 5897 5896 5896 5896 5895 5894 5893 5892 5890 5889 5887 5884 5882 5880 5878 5875 5873 5870 5867 5865 5862 5859 5855 5852
5837 5840 5844 5851 5854 5858 5862 5866 5869 5871 5874 5877 5880 5883 5885 5887 5888 5889 5890 5891 5891 5891 5891 5890 5889 5888 5887 5886 5884 5883 5881 5879 5877 5875 5873 5870 5867 5864 5862 5860 5857 5853 5850 5847
5828 5832 5838 5842 5845 5849 5853 5857 5860 5863 5866 5870 5872 5875 5877 5879 5881 5883 5884 5885 5885 5885 5885 5884 5883 5882 5881 5880 5879 5877 5876 5874 5871 5869 5867 5865 5862 5859 5857 5854 5851 5848 5844 5841
5820 5825 5829 5833 5836 5840 5844 5848 5851 5855 5858 5861 5864 5867 5869 5872 5873 5875 5877 5878 5878 5878 5878 5877 5877 5876 5875 5874 5872 5871 5869 5867 5865 5863 5861 5859 5856 5854 5851 5848 5845 5842 5839 5836
5811 5815 5820 5824 5828 5832 5836 5839 5843 5847 5850 5853 5856 5858 5861 5863 5865 5867 5869 5870 5870 5870 5870 5870 5869 5869 5867 5866 5865 5864 5862 5860 5858 5856 5854 5852 5850 5847 5844 5842 5839 5836 5833 5830
5801 5806 5811 5815 5819 5823 5827 5831 5835 5838 5841 5845 5847 5850 5852 5854 5856 5858 5860 5861 5862 5862 5862 5862 5861 5860 5860 5858 5857 5856 5854 5853 5852 5850 5847 5845 5842 5840 5837 5834 5831 5828 5825 5823
5793 5797 5802 5807 5810 5814 5818 5822 5826 5829 5832 5835 5838 5840 5843 5845 5847 5849 5851 5852 5853 5853 5853 5853 5853 5852 5850 5850 5849 5848 5846 5845 5843 5842 5840 5837 5835 5832 5829 5827 5823 5820 5817 5815
5784 5788 5793 5797 5801 5805 5809 5813 5817 5820 5823 5826 5828 5831 5833 5835 5838 5840 5841 5842 5843 5844 5844 5843 5843 5842 5841 5840 5839 5838 5837 5836 5835 5833 5831 5829 5826 5824 5821 5818 5815 5812 5809 5806
5775 5779 5784 5788 5792 5796 5800 5803 5807 5811 5814 5816 5818 5820 5823 5826 5828 5830 5831 5832 5833 5834 5834 5833 5832 5832 5832 5831 5830 5829 5828 5827 5825 5824 5822 5819 5817 5814 5812 5809 5806 5803 5800 5798
5767 5771 5775 5779 5783 5787 5791 5794 5798 5801 5804 5806 5809 5811 5814 5816 5818 5820 5822 5822 5823 5823 5824 5823 5823 5823 5822 5821 5820 5820 5818 5817 5816 5814 5812 5810 5808 5805 5803 5800 5797 5794 5792 5789
5759 5762 5766 5769 5774 5778 5781 5785 5788 5791 5794 5796 5799 5801 5804 5806 5808 5810 5811 5812 5813 5814 5814 5813 5814 5813 5812 5811 5810 5810 5809 5808 5806 5804 5802 5800 5798 5796 5793 5791 5788 5785 5783 5780
5750 5754 5758 5761 5765 5768 5772 5775 5778 5781 5784 5787 5789 5791 5794 5796 5798 5800 5802 5803 5803 5803 5803 5803 5802 5802 5801 5800 5800 5799 5798 5797 5796 5794 5792 5790 5788 5786 5784 5781 5778 5776 5773 5771
5741 5745 5749 5752 5756 5759 5762 5766 5769 5772 5775 5777 5779 5781 5783 5786 5788 5790 5791 5792 5793 5793 5792 5791 5790 5789 5790 5790 5790 5789 5788 5787 5785 5784 5782 5780 5778 5776 5773 5771 5768 5766 5763 5761
5734 5737 5741 5744 5748 5751 5754 5757 5760 5763 5765 5767 5770 5772 5774 5776 5778 5780 5781 5782 5782 5782 5782 5781 5781 5781 5781 5781 5780 5779 5778 5777 5775 5774 5772 5770 5768 5766 5763 5761 5758 5755 5753 5750
5726 5730 5733 5737 5740 5743 5746 5749 5752 5755 5757 5759 5761 5763 5766 5768 5769 5770 5771 5772 5772 5772 5772 5772 5772 5772 5772 5771 5770 5769 5768 5767 5765 5764 5762 5760 5758 5755 5753 5750 5748 5745 5743 5740
5719 5723 5727 5730 5733 5736 5739 5741 5744 5746 5748 5750 5752 5755 5757 5759 5760 5760 5760 5761 5762 5761 5762 5762 5762 5762 5761 5761 5760 5759 5758 5756 5755 5753 5752 5750 5747 5745 5742 5740 5738 5735 5733 5730
5713 5716 5719 5722 5726 5728 5731 5733 5736 5738 5740 5742 5744 5746 5748 5749 5750 5750 5750 5751 5751 5751 5751 5751 5751 5751 5751 5750 5750 5749 5748 5746 5745 5743 5741 5739 5737 5735 5732 5730 5728 5725 5722 5720
5707 5710 5712 5715 5718 5720 5723 5726 5728 5730 5732 5734 5736 5737 5739 5739 5740 5740 5741 5741 5741 5741 5741 5741 5741 5741 5741 5740 5740 5739 5738 5736 5735 5733 5731 5729 5727 5725 5723 5721 5718 5716 5713 5711
5702 5704 5706 5709 5711 5713 5715 5718 5720 5722 5724 5726 5727 5729 5730 5730 5731 5731 5731 5732 5732 5732 5732 5732 5732 5731 5731 5731 5730 5729 5728 5727 5725 5723 5721 5719 5717 5716 5714 5712 5709 5707 5704 5702
5697 5699 5701 5702 5704 5706 5709 5711 5713 5715 5716 5717 5718 5719 5720 5721 5722 5722 5723 5723 5723 5723 5723 5723 5723 5722 5722 5721 5721 5720 5719 5717 5716 5714 5713 5710 5709 5707 5705 5703 5700 5698 5696 5693
5692 5693 5695 5697 5698 5700 5702 5703 5705 5707 5708 5709 5710 5711 5712 5713 5713 5714 5714 5715 5715 5715 5714 5714 5713 5713 5712 5712 5711 5711 5709 5708 5707 5705 5704 5702 5700 5698 5696 5694 5691 5689 5687 5685
5687 5688 5690 5691 5692 5693 5695 5696 5698 5699 5700 5701 5702 5703 5704 5705 5706 5706 5707 5707 5706 5706 5706 5705 5705 5704 5703 5703 5702 5701 5700 5699 5698 5696 5695 5693 5691 5689 5687 5685 5683 5681 5679 5677